Weather History for Bolton Field, OH

Change the Weather History Date:

Friday, October 4, 2013

  Actual Average Record
Temperature  
Mean Temperature 70 °F -  
Max Temperature 82 °F 69 °F 86 °F (2002)
Min Temperature 59 °F 48 °F 37 °F (2014)
Cooling Degree Days 6    
Growing Degree Days 20 (Base 50)    
Moisture  
Dew Point 65 °F    
Average Humidity 94    
Maximum Humidity 100    
Minimum Humidity 54    
Precipitation  
Precipitation 0.00 in - - ()
Sea Level Pressure  
Sea Level Pressure 30.07 in    
Wind  
Wind Speed 2 mph (SSW)    
Max Wind Speed 8 mph    
Max Gust Speed -    
Visibility 5 miles    
Events Fog    
Averages and records for this station are not official NWS values.
T = Trace of Precipitation, MM = Missing Value Source: NWS Daily Summary

Daily Weather History Graph

Daily Weather History Graph

Search for Another Location

Airport:

Trip Planner

Search our weather history database for the weather conditions in past years. The results will help you decide how hot, cold, wet, or windy it might be!

Date:

Astronomy

Oct. 04, 2013 Rise Set
Actual Time 7:31 AM EDT 7:09 PM EDT
Civil Twilight 7:04 AM EDT 7:36 PM EDT
Nautical Twilight 6:33 AM EDT 8:07 PM EDT
Astronomical Twilight 6:02 AM EDT 8:39 PM EDT
Moon 7:06 AM EDT (10/4) 6:51 PM EDT (10/4)
Length of Visible Light 12h 31m
Length of Day
11h 37m
Waning Crescent, 0% of the Moon is Illuminated
Oct 4
Waning Crescent
Oct 4
New
Oct 11
First Quarter
Oct 18
Full
Oct 26
Last Quarter

Hourly Weather History & Observations

Time (EDT) Temp. Heat Index Dew Point Humidity Pressure Visibility Wind Dir Wind Speed Gust Speed Precip Events Conditions
12:35 AM 67.1 °F - 65.7 °F 95% 30.06 in 10.0 mi SSW 3.5 mph - N/A   Clear
12:55 AM 66.2 °F - 65.3 °F 97% 30.06 in 10.0 mi SSW 3.5 mph - N/A   Clear
1:15 AM 65.5 °F - 64.9 °F 98% 30.06 in 7.0 mi South 3.5 mph - N/A   Clear
1:35 AM 65.3 °F - 64.9 °F 99% 30.06 in 7.0 mi South 3.5 mph - N/A   Scattered Clouds
1:55 AM 65.1 °F - 64.8 °F 99% 30.06 in 5.0 mi Calm Calm - N/A   Scattered Clouds
2:15 AM 64.8 °F - 64.8 °F 100% 30.06 in 5.0 mi Calm Calm - N/A   Scattered Clouds
2:35 AM 64.8 °F - 64.8 °F 100% 30.06 in 4.0 mi South 3.5 mph - N/A   Scattered Clouds
2:55 AM 64.0 °F - 64.0 °F 100% 30.06 in 3.0 mi Calm Calm - N/A   Clear
3:15 AM 63.5 °F - 63.5 °F 100% 30.06 in 3.0 mi Calm Calm - N/A   Clear
3:35 AM 63.0 °F - 63.0 °F 100% 30.05 in 3.0 mi South 3.5 mph - N/A   Clear
3:55 AM 63.0 °F - 63.0 °F 100% 30.05 in 3.0 mi Calm Calm - N/A   Clear
4:15 AM 61.9 °F - 61.9 °F 100% 30.06 in 1.5 mi Calm Calm - N/A   Mist
4:35 AM 61.0 °F - 61.0 °F 100% 30.06 in 0.2 mi Calm Calm - N/A Fog Fog
4:55 AM 59.7 °F - 59.7 °F 100% 30.06 in 0.2 mi South 3.5 mph - N/A Fog Fog
5:15 AM 59.7 °F - 59.7 °F 100% 30.07 in 0.2 mi Calm Calm - N/A Fog Fog
5:35 AM 59.4 °F - 59.4 °F 100% 30.07 in 0.2 mi Calm Calm - N/A Fog Fog
5:55 AM 61.0 °F - 61.0 °F 100% 30.07 in 0.2 mi SSE 4.6 mph - N/A Fog Fog
6:15 AM 61.0 °F - 61.0 °F 100% 30.07 in 0.2 mi Calm Calm - N/A Fog Fog
6:35 AM 61.5 °F - 61.5 °F 100% 30.08 in 0.8 mi Calm Calm - N/A   Overcast
6:55 AM 62.1 °F - 62.1 °F 100% 30.08 in 1.8 mi Calm Calm - N/A   Mostly Cloudy
7:15 AM 61.9 °F - 61.9 °F 100% 30.09 in 2.0 mi SSE 3.5 mph - N/A   Clear
7:25 AM 62.6 °F - 62.6 °F 100% 30.09 in 2.0 mi Calm Calm - N/A   Clear
7:47 AM 62.6 °F - 62.6 °F 100% 30.10 in 0.5 mi Calm Calm - N/A Fog Fog
8:47 AM 64.4 °F - 64.4 °F 100% 30.11 in 3.0 mi Calm Calm - N/A   Clear
10:55 AM 73.4 °F - 66.2 °F 78% 30.10 in 10.0 mi SW 6.9 mph - N/A   Mostly Cloudy
11:50 AM 73.4 °F - 66.2 °F 78% 30.10 in 10.0 mi SSW 6.9 mph - N/A   Scattered Clouds
12:50 PM 78.8 °F - 66.2 °F 65% 30.10 in 10.0 mi SW 8.1 mph - N/A   Clear
1:50 PM 80.6 °F 82.3 °F 64.4 °F 58% 30.07 in 10.0 mi SW 6.9 mph - N/A   Mostly Cloudy
2:50 PM 82.4 °F 83.9 °F 64.4 °F 54% 30.05 in 10.0 mi WSW 8.1 mph - N/A   Scattered Clouds
3:50 PM 78.8 °F - 66.2 °F 65% 30.05 in 10.0 mi WSW 6.9 mph - N/A   Overcast
4:50 PM 73.4 °F - 69.8 °F 88% 30.06 in 10.0 mi NNE 5.8 mph - N/A   Overcast
5:50 PM 73.4 °F - 69.8 °F 88% 30.07 in 10.0 mi WNW 5.8 mph - N/A   Mostly Cloudy
6:50 PM 71.6 °F - 69.8 °F 94% 30.07 in 10.0 mi Calm Calm - N/A   Clear
7:35 PM 70.7 °F - 68.9 °F 94% 30.08 in 10.0 mi Calm Calm - N/A   Clear
7:55 PM 70.7 °F - 68.2 °F 92% 30.07 in 10.0 mi Calm Calm - N/A   Clear
8:15 PM 69.8 °F - 68.0 °F 94% 30.07 in 10.0 mi Calm Calm - N/A   Clear
8:35 PM 69.3 °F - 67.6 °F 95% 30.07 in 10.0 mi Calm Calm - N/A   Clear
8:55 PM 68.0 °F - 66.7 °F 96% 30.07 in 7.0 mi Calm Calm - N/A   Clear
9:15 PM 66.7 °F - 65.7 °F 96% 30.08 in 7.0 mi Calm Calm - N/A   Clear
9:35 PM 65.8 °F - 65.3 °F 98% 30.08 in 7.0 mi NNE 3.5 mph - N/A   Clear
9:55 PM 65.7 °F - 65.1 °F 98% 30.08 in 7.0 mi Calm Calm - N/A   Scattered Clouds
10:15 PM 65.5 °F - 65.3 °F 99% 30.08 in 5.0 mi Calm Calm - N/A   Scattered Clouds
10:35 PM 64.8 °F - 64.8 °F 100% 30.08 in 4.0 mi NNW 3.5 mph - N/A   Clear
10:55 PM 67.5 °F - 67.3 °F 99% 30.09 in 5.0 mi NNE 5.8 mph - N/A   Clear
11:15 PM 67.6 °F - 67.1 °F 98% 30.09 in 5.0 mi Calm Calm - N/A   Scattered Clouds
11:35 PM 66.7 °F - 66.6 °F 99% 30.09 in 4.0 mi Calm Calm - N/A   Clear
11:55 PM 65.3 °F - 65.1 °F 99% 30.09 in 1.5 mi Calm Calm - N/A   Scattered Clouds